RH
15 13 12 12 12 12 11 10 10 9 9 8 9 9 9 10 11 12 14 17 19 21 20 18 17 18 19 16 14 13 14 14 16 26 26 16 13 15 15 14 15 16 17 17 16 14 14 16 14 14 15 15 17 16 14 18 18 20 32 32 30 33 32 33 31 28 32 29 29 34 41 49 49 60 74 69 76 90 88 96 100 96 99 99 99 100 99 99
18 16 15 13 12 12 11 11 10 10 10 9 9 9 9 9 10 11 11 12 14 17 17 16 14 15 18 18 15 13 15 16 22 31 23 11 12 15 16 16 16 18 18 14 11 13 14 17 15 16 19 17 16 16 15 16 15 25 37 30 28 32 28 29 29 28 28 24 28 34 39 46 45 58 69 59 74 93 79 80 95 98 99 99 99 100 98 99
21 19 17 16 14 13 12 11 10 10 10 10 9 9 9 9 9 10 10 11 11 12 15 15 15 17 18 18 16 13 19 21 22 23 15 10 11 12 15 18 19 20 19 12 10 12 13 15 14 16 19 17 18 17 16 15 16 25 29 26 28 26 23 25 26 26 25 25 30 33 38 44 47 57 63 64 79 92 83 76 79 87 97 100 99 99 99 99
29 24 21 19 17 15 13 12 10 10 9 9 9 9 9 8 9 9 10 11 11 11 12 14 16 19 19 18 15 15 22 20 15 13 10 10 10 11 15 17 18 19 18 11 10 13 12 14 14 18 18 18 23 19 17 18 17 23 23 23 25 20 19 19 20 23 24 28 30 33 41 44 49 53 61 72 74 82 85 78 71 69 84 100 99 98 100 99
37 31 27 24 21 18 16 14 12 10 9 8 8 9 8 8 8 8 9 10 11 10 11 13 16 21 22 18 15 19 24 18 11 10 12 12 8 11 16 16 16 18 16 9 11 13 12 14 17 21 20 20 24 18 18 19 17 21 21 20 20 19 18 15 17 22 25 30 31 36 40 41 45 46 63 75 60 68 75 68 72 68 78 99 100 97 98 97
42 37 33 29 26 24 20 17 15 13 11 9 8 8 8 8 8 7 8 9 11 10 11 12 16 23 22 18 18 21 24 18 13 11 13 15 9 11 17 17 18 17 13 9 12 13 13 17 18 20 21 21 22 17 18 18 15 17 19 19 19 19 18 15 18 22 27 30 30 37 37 41 48 41 62 74 53 61 70 63 71 76 86 98 99 97 96 96
44 40 36 32 29 26 25 23 20 17 14 12 9 8 7 7 8 7 7 7 9 10 11 11 17 24 22 19 22 24 24 18 14 12 14 16 10 9 14 16 17 12 9 11 13 14 17 18 17 20 21 20 20 19 18 16 15 15 16 17 17 18 18 16 17 21 28 28 27 36 36 39 47 44 62 74 57 65 77 75 80 88 96 98 99 100 96 96
45 42 39 35 31 27 26 24 23 21 18 15 13 10 8 7 7 7 7 7 7 10 10 11 18 25 23 19 19 22 22 16 12 12 14 15 10 7 9 11 11 9 9 12 12 15 19 18 18 20 19 18 18 18 16 14 16 17 17 17 16 18 19 16 16 20 25 27 29 37 35 35 44 50 63 67 58 74 89 90 94 97 99 100 100 101 98 97
44 43 40 37 32 28 25 24 24 24 21 19 15 13 11 8 7 7 7 6 6 9 9 12 20 25 24 20 19 19 17 13 12 12 14 14 9 7 8 7 8 9 11 12 12 14 16 17 19 17 16 18 16 17 15 13 17 18 18 17 16 16 16 15 16 19 22 27 34 35 34 38 46 49 54 61 65 84 95 95 99 99 99 101 100 100 99 98
47 45 43 39 34 29 25 22 21 23 24 22 18 15 13 8 7 6 6 6 6 8 8 12 22 26 24 20 20 21 13 11 13 12 14 14 10 8 9 8 9 11 11 13 13 14 15 17 18 15 15 16 15 16 15 13 16 17 16 15 15 14 13 14 13 18 22 27 34 32 35 46 51 45 42 58 80 92 96 99 101 99 100 100 98 99 97 98
49 47 44 40 35 30 25 22 19 19 22 24 20 14 10 7 7 6 5 6 5 7 8 12 23 28 23 18 20 20 12 10 13 12 14 15 11 8 9 9 10 11 11 13 13 12 13 14 16 14 15 16 14 15 14 14 14 13 14 13 15 14 13 14 11 19 23 24 34 35 38 48 53 49 43 61 89 92 92 99 101 99 100 98 96 96 96 97
48 46 43 39 35 30 25 21 17 15 18 23 19 10 8 9 9 8 7 8 9 9 8 13 25 29 23 22 23 18 11 11 12 11 13 15 12 9 9 9 10 10 10 13 13 11 12 14 14 13 14 14 14 14 13 14 13 12 13 12 15 15 13 12 12 20 21 24 37 37 36 43 47 51 54 73 94 92 90 98 100 100 100 98 98 97 96 97
45 42 39 35 32 29 24 19 15 13 15 20 16 8 11 13 12 11 13 18 19 14 11 17 27 29 26 27 22 12 11 13 11 11 12 13 13 11 10 10 10 10 10 11 11 11 13 14 13 14 14 13 14 13 12 14 13 12 12 13 16 15 14 11 14 23 21 28 38 29 29 37 39 48 65 83 93 91 91 95 97 100 100 99 100 100 98 97
41 37 33 31 28 25 22 18 15 10 13 19 14 11 16 15 15 18 22 26 25 18 17 23 30 30 29 26 17 12 13 12 11 12 11 12 12 11 11 11 11 10 11 10 10 12 13 13 13 14 14 13 14 12 12 16 17 16 12 17 18 15 18 14 19 25 19 32 39 23 25 31 24 40 74 91 90 88 86 90 96 97 98 98 99 100 99 97
38 35 31 27 24 21 20 18 14 10 14 18 13 14 18 16 20 24 26 26 24 24 25 29 31 30 31 27 17 15 16 13 13 11 11 12 11 10 10 10 11 10 11 11 11 12 12 12 13 14 14 14 13 12 16 18 23 23 12 19 25 17 18 15 20 25 19 36 42 23 26 30 17 31 76 97 90 85 81 86 94 94 96 96 96 98 97 97
35 33 29 26 23 21 19 17 14 11 15 16 13 17 18 19 26 27 27 27 26 27 28 32 32 28 29 26 20 19 20 18 16 13 12 13 11 10 9 9 11 10 11 11 11 12 12 12 13 15 15 12 14 14 18 21 29 35 21 19 26 19 18 16 16 20 25 42 44 29 31 34 25 33 72 97 91 86 84 86 92 92 94 94 95 96 95 96
31 30 28 26 24 22 20 17 14 15 18 16 14 17 18 23 29 28 27 27 29 30 31 35 33 28 27 22 19 20 21 20 18 16 15 13 12 11 9 10 12 11 12 11 10 13 12 13 13 17 18 16 20 19 20 25 29 41 39 26 23 19 18 17 14 16 29 43 42 38 37 30 29 44 74 93 91 87 83 84 90 91 93 93 94 95 95 96
29 27 26 26 25 23 22 18 16 20 20 16 15 17 19 23 29 32 28 25 31 35 37 39 35 31 26 20 20 20 20 19 18 17 16 15 14 12 10 11 13 13 15 14 12 13 12 15 16 18 23 19 19 20 22 26 22 28 34 26 21 20 17 17 16 17 25 35 39 44 42 32 30 47 74 87 88 88 81 80 86 89 91 92 94 95 94 95
29 27 24 24 25 24 23 19 19 23 21 16 16 17 18 21 29 34 26 21 28 29 30 35 33 29 24 20 21 19 17 17 17 17 15 16 15 13 12 11 13 14 15 17 16 16 13 16 19 19 23 20 17 20 19 21 21 18 19 19 20 19 17 17 15 16 20 28 39 44 41 35 29 39 67 81 83 85 80 77 83 88 91 92 94 95 94 95
34 30 24 23 23 24 23 21 23 24 21 18 16 18 24 30 35 38 31 26 27 25 23 26 27 25 24 22 20 17 16 15 17 18 16 16 15 13 13 13 14 15 16 19 19 19 14 16 23 20 20 20 18 19 17 16 18 16 16 17 19 18 17 16 13 14 19 26 36 40 38 36 28 32 57 75 79 82 78 75 80 83 87 91 93 93 93 93
37 32 27 23 21 23 22 23 25 22 21 21 19 26 35 37 37 37 37 34 29 27 26 24 23 23 21 19 17 16 18 19 19 19 16 15 14 15 17 16 16 19 19 19 19 17 16 19 23 20 19 19 17 18 17 16 15 15 17 18 18 19 17 15 12 13 19 23 27 34 39 37 29 35 57 72 76 78 76 72 73 73 78 87 91 91 91 90
39 36 30 23 22 22 21 25 25 20 20 20 20 30 36 33 33 34 39 41 32 28 28 25 24 22 20 18 17 16 19 23 22 20 17 14 15 17 19 18 19 23 20 18 19 18 20 22 19 17 19 18 17 18 16 16 17 17 18 18 19 19 17 16 15 14 17 24 28 31 36 34 28 39 59 69 70 70 68 67 65 64 69 78 87 89 88 88
41 40 34 27 23 20 20 26 24 19 23 26 24 28 29 27 34 38 40 42 34 27 25 24 24 23 21 19 17 18 20 23 23 20 17 14 16 19 18 19 20 20 18 18 20 21 23 23 18 17 19 17 17 18 17 17 18 19 18 19 20 18 16 17 16 15 17 22 27 26 30 30 24 33 47 56 62 61 61 63 63 62 63 67 75 82 85 87
42 44 43 34 24 17 19 26 27 24 28 37 32 25 26 26 35 43 41 38 33 29 25 21 20 21 21 18 15 20 24 24 23 20 16 14 17 18 17 19 21 20 20 19 19 21 20 19 17 17 17 17 16 17 17 17 20 23 20 19 19 16 17 18 15 16 19 21 21 19 25 29 23 24 29 40 56 57 57 63 63 63 63 62 66 72 79 83
43 46 49 44 31 15 15 27 33 31 32 37 31 24 26 23 29 43 49 48 39 33 30 24 23 22 19 17 17 21 22 21 22 18 15 14 15 17 16 16 18 20 20 18 19 20 18 16 14 15 16 16 15 17 17 17 22 25 20 17 17 16 16 17 15 17 21 24 21 16 21 35 40 31 22 37 56 55 54 60 59 59 61 61 63 65 73 78
49 50 51 55 43 16 16 34 37 32 31 30 25 23 25 22 28 40 56 68 52 33 29 25 26 24 17 18 18 19 21 22 20 15 13 13 12 14 16 17 17 19 20 19 19 20 18 16 14 14 16 15 15 17 17 17 20 22 21 17 15 17 17 17 17 16 22 25 22 18 20 36 46 32 22 41 58 55 54 57 55 55 57 59 58 58 65 73
59 57 53 61 55 32 32 44 41 35 29 25 24 24 22 22 28 33 51 70 55 32 27 25 25 21 17 18 16 17 21 21 18 14 13 13 12 12 15 19 18 16 18 19 21 23 19 15 15 16 15 16 18 17 18 18 18 23 21 16 15 16 16 18 17 17 22 23 25 32 26 24 32 28 30 46 53 53 56 56 54 53 52 54 53 52 57 64
66 62 59 64 58 46 47 52 57 51 31 24 27 24 21 22 30 41 51 54 40 27 22 20 20 17 17 17 15 17 18 19 19 18 15 11 12 13 15 20 18 16 18 18 22 25 20 15 15 17 16 18 21 20 19 17 19 24 19 14 17 17 17 17 13 19 27 20 25 38 26 19 35 42 43 46 42 46 52 51 51 51 49 49 49 49 50 57
65 65 66 61 49 44 47 50 57 49 29 25 27 23 21 22 31 44 52 44 30 23 19 18 19 20 23 21 18 20 18 18 20 18 16 12 13 14 16 20 18 16 16 15 21 22 17 17 18 17 17 19 22 23 19 15 18 19 15 16 21 29 37 31 19 21 27 23 26 33 23 19 38 45 36 33 35 39 40 42 45 47 46 46 46 46 46 53
59 64 65 56 44 42 45 41 38 32 27 25 26 24 20 30 46 49 50 46 33 24 20 21 24 23 25 24 24 27 20 18 21 18 18 16 14 15 16 19 18 20 21 17 20 18 14 20 22 17 17 18 20 20 18 16 15 14 15 14 17 31 41 46 49 35 23 28 30 29 26 18 28 43 36 27 33 34 27 31 39 43 46 44 43 44 43 50
60 61 58 54 49 51 55 46 30 26 28 24 25 26 19 36 64 60 50 42 32 33 30 27 29 26 25 26 29 31 24 22 24 19 20 20 18 17 18 22 24 30 36 27 21 22 18 19 22 21 21 18 15 16 17 19 15 14 21 17 18 34 33 41 59 41 21 31 34 33 33 20 22 40 39 29 32 33 27 27 29 33 42 44 41 41 41 47
65 58 50 49 52 53 52 43 28 24 27 24 32 44 37 34 48 56 54 38 29 40 36 28 30 26 25 28 29 30 25 26 28 21 22 25 24 21 19 27 31 32 41 40 32 31 27 22 21 21 23 18 14 19 22 22 17 16 25 21 21 36 34 34 49 40 31 38 35 34 31 22 23 30 31 28 24 26 31 32 29 29 36 41 41 39 39 46
66 59 46 41 45 43 34 32 33 30 28 29 40 59 56 41 43 53 51 35 31 38 31 26 30 26 27 30 29 33 29 27 29 24 24 27 27 27 23 26 28 25 38 47 40 35 33 33 27 19 23 20 15 21 22 25 25 19 24 25 24 32 31 37 51 43 37 37 33 36 33 29 31 27 27 26 17 20 30 33 34 34 35 39 42 39 38 48
64 59 48 36 36 39 37 41 45 35 27 33 45 53 47 45 57 58 48 46 45 40 31 29 29 24 25 29 29 32 34 34 31 27 31 34 33 38 37 33 27 22 31 41 43 42 36 38 34 22 26 24 15 17 17 22 27 23 25 26 28 38 35 40 49 37 33 38 34 34 33 33 33 28 32 33 31 39 44 45 46 45 43 42 42 41 42 51
63 54 46 37 36 46 50 49 49 36 29 39 49 53 48 48 57 58 57 62 49 36 34 32 31 31 35 46 43 30 28 34 33 33 40 40 36 40 43 38 31 26 28 37 47 45 34 38 38 23 22 22 16 17 14 16 25 29 30 23 22 34 32 34 47 43 38 39 37 36 39 44 37 29 40 48 46 50 53 58 59 55 54 50 45 46 46 52
64 50 40 38 45 54 52 50 48 35 32 41 41 46 52 48 48 51 53 48 35 34 40 37 40 44 46 60 60 38 28 32 34 37 43 42 38 40 40 35 31 29 30 39 48 42 33 42 41 25 22 20 15 18 15 16 29 32 26 24 25 26 22 29 47 53 44 38 45 44 38 44 36 27 44 50 40 41 45 51 54 54 59 56 51 51 51 53
69 62 53 46 49 53 51 51 46 35 37 42 40 51 57 42 39 46 42 32 28 38 44 38 40 43 40 52 60 47 34 37 39 37 42 47 41 38 44 42 37 38 37 38 42 39 34 36 34 24 21 20 17 18 16 15 23 28 24 26 26 22 28 37 38 44 47 42 50 48 33 36 35 35 50 44 29 35 40 44 49 51 57 60 55 54 54 52
76 75 67 53 47 52 55 52 43 40 42 38 45 63 61 38 30 34 31 28 31 37 41 38 38 41 40 46 55 47 32 37 45 37 40 50 41 38 53 53 44 47 48 39 38 44 41 38 40 31 20 27 29 21 23 26 20 18 20 24 25 27 41 46 33 36 43 40 50 56 47 43 40 43 47 33 28 35 33 39 44 43 52 60 56 55 55 54
79 76 66 52 45 51 55 51 47 48 45 41 49 56 51 40 33 30 29 31 32 34 38 40 39 43 44 42 47 47 36 37 42 39 42 47 42 42 55 57 51 51 53 46 44 51 50 43 50 47 29 32 38 28 35 47 36 23 20 22 29 32 37 39 36 40 40 41 52 52 46 47 45 44 38 25 30 36 31 39 41 36 45 53 54 57 57 57
81 72 61 49 45 51 53 50 49 46 43 52 62 55 43 37 32 31 30 29 30 31 36 42 39 40 45 43 41 45 45 41 37 41 47 47 48 52 51 53 58 58 58 58 56 60 61 51 56 63 48 39 44 38 36 42 40 34 29 28 31 31 31 32 35 39 37 42 51 43 41 54 54 47 37 25 29 34 32 37 36 34 39 45 53 60 59 59
81 69 59 44 39 51 59 57 55 52 53 60 64 56 44 38 36 37 34 30 32 33 33 36 35 36 42 43 41 42 49 50 41 41 50 52 57 62 54 52 61 65 65 68 68 68 70 67 70 77 66 54 55 45 34 37 38 36 38 42 39 34 32 31 37 47 42 40 51 47 42 49 51 48 39 24 25 31 32 33 33 34 37 42 54 62 62 62
80 66 52 34 33 48 59 68 72 71 72 70 61 52 46 44 44 42 39 36 36 35 33 32 34 40 41 43 50 51 54 61 54 47 54 61 65 63 56 54 60 69 72 72 73 71 68 70 77 80 72 64 58 46 41 44 39 37 47 53 53 54 52 47 53 62 55 46 52 50 42 45 55 59 50 37 35 35 33 33 33 34 37 43 51 59 63 64
89 78 50 26 32 49 62 78 82 76 77 76 64 52 47 49 50 48 49 47 40 39 41 38 38 43 46 50 58 57 56 61 59 56 59 65 65 58 54 55 58 70 78 76 74 71 68 71 76 76 71 60 54 50 51 52 50 58 67 63 62 68 66 63 62 60 59 57 49 42 47 55 60 63 61 57 54 46 39 37 34 35 42 45 46 52 59 62
100 96 71 39 33 46 63 82 85 79 80 77 68 63 58 55 55 56 57 53 46 44 47 48 46 45 51 59 62 60 58 57 59 64 65 65 65 57 54 57 57 66 72 69 67 65 68 77 77 74 72 64 59 62 65 67 71 78 78 71 69 69 66 73 73 65 70 71 53 46 58 58 49 49 52 52 53 51 47 43 38 36 42 45 45 48 54 59
93 90 86 63 44 47 65 83 87 85 87 81 75 76 71 63 60 59 57 53 50 49 49 51 50 48 56 65 66 64 60 56 62 67 66 71 75 63 56 57 58 66 64 55 59 65 70 80 77 73 80 79 74 74 75 80 84 80 73 69 72 74 73 82 85 79 84 84 72 68 69 60 48 46 47 46 49 54 56 54 49 42 41 42 43 46 52 60
81 77 85 77 68 70 77 87 89 86 88 85 80 77 73 70 65 56 52 51 51 53 53 52 51 52 59 66 69 71 68 63 65 65 64 76 81 68 60 59 61 69 59 45 59 74 78 84 84 82 86 81 77 79 78 81 85 80 71 69 77 82 79 82 86 84 84 88 86 79 72 68 61 53 51 50 47 54 63 64 61 55 50 45 43 49 57 64
79 78 82 75 75 82 81 85 92 92 87 81 77 75 73 75 69 58 52 52 53 54 54 58 62 58 57 63 69 76 76 72 70 68 67 78 83 74 65 61 64 69 57 47 63 76 74 78 83 86 87 80 80 86 84 82 82 75 66 66 76 85 84 86 88 83 81 88 89 79 72 75 69 56 55 54 48 54 65 65 64 64 62 57 53 55 58 61
74 78 83 73 75 85 81 83 95 96 88 82 80 80 76 73 71 66 60 58 61 58 52 61 74 69 65 68 70 74 79 79 78 76 74 76 78 77 75 67 65 69 63 59 68 73 74 82 84 83 86 83 81 83 83 84 83 77 72 70 72 79 84 84 82 80 84 90 85 75 74 77 69 59 57 54 51 58 65 65 65 64 65 65 60 56 54 54
79 86 92 81 84 93 90 90 94 91 88 86 83 82 79 76 76 73 65 63 69 65 56 64 74 71 69 72 74 79 81 78 75 75 78 79 75 79 83 72 63 69 69 64 68 71 77 90 90 78 76 75 70 68 68 73 77 76 76 75 71 72 77 78 76 77 83 85 78 75 81 78 65 58 57 54 59 69 70 68 67 65 67 69 63 55 51 51
93 98 96 89 91 93 92 97 93 85 88 87 81 80 79 77 77 74 66 63 66 65 64 69 73 71 72 74 78 80 74 67 67 70 77 78 76 82 86 73 67 76 72 65 73 76 73 83 85 75 73 71 65 65 66 67 73 74 72 73 73 74 77 75 72 76 84 85 78 78 84 76 63 65 66 59 62 68 62 60 65 67 71 74 68 59 54 51
93 93 92 97 97 86 88 99 93 87 93 91 82 81 79 74 73 72 68 64 62 66 70 72 73 75 76 77 79 77 70 66 68 71 72 69 69 76 77 68 67 75 77 78 81 78 75 84 85 80 85 81 68 71 75 70 76 84 80 79 78 75 73 65 61 69 77 77 77 81 83 75 69 76 73 60 58 59 53 56 64 65 69 75 73 66 60 55
90 88 89 98 98 85 87 97 93 90 96 92 84 81 75 75 78 76 71 69 67 69 73 72 71 72 72 74 73 68 67 68 66 67 69 66 66 70 69 69 69 71 81 89 86 81 82 87 84 83 91 85 67 68 76 76 86 91 79 71 70 69 67 61 55 58 59 59 66 69 65 60 64 70 65 58 61 61 55 55 59 60 67 76 78 76 73 69
Wind_Speed
21 20 19 18 18 18 18 17 17 16 16 15 14 14 13 13 13 14 14 14 14 14 14 15 15 15 15 15 16 17 19 20 16 9 6 8 7 5 6 7 4 3 3 3 0 3 5 5 5 7 4 2 2 0 1 0 2 3 4 2 2 3 4 5 6 6 4 3 4 5 6 8 6 4 1 1 3 2 1 1 1 1 2 2 1 5 10 14
22 22 21 20 20 20 19 19 19 18 17 17 16 15 14 14 14 14 15 15 15 15 14 15 15 14 13 14 15 16 19 19 14 9 8 7 6 6 7 7 6 4 3 2 1 4 5 2 3 5 4 2 2 1 1 1 2 3 3 1 4 5 5 5 6 5 4 4 4 4 5 7 7 6 4 2 2 3 1 3 2 2 2 5 5 8 11 13
23 23 22 21 21 21 21 21 20 20 19 19 18 17 16 15 15 15 15 16 16 16 15 15 15 14 11 13 13 15 18 14 8 4 2 2 3 7 9 8 6 3 3 1 3 4 5 3 1 4 4 1 1 1 0 1 3 2 3 2 6 6 5 5 6 7 7 4 3 4 4 5 4 5 4 3 2 1 3 5 2 5 5 7 7 10 11 13
23 23 23 23 22 21 21 21 21 21 21 20 20 19 18 17 16 16 16 16 16 16 16 15 16 13 10 11 11 13 14 7 2 2 2 4 2 5 11 11 7 4 2 1 3 3 4 5 5 5 3 1 3 2 1 2 3 2 4 5 7 4 3 8 8 8 8 4 5 4 3 4 3 4 4 5 4 3 6 7 7 8 7 9 9 10 12 12
24 24 24 24 23 23 22 21 22 21 21 21 21 20 19 19 17 17 17 17 17 17 17 16 16 13 8 9 9 11 9 5 1 3 3 4 3 3 9 10 8 5 2 3 3 4 5 5 6 5 3 1 3 2 2 3 3 1 4 7 7 5 4 9 5 6 5 3 4 5 5 5 3 3 4 8 5 6 6 7 11 10 6 10 11 11 11 12
25 25 25 25 25 24 24 23 22 22 22 21 21 21 20 20 18 17 17 17 17 16 16 16 15 12 8 6 7 7 3 1 5 5 5 4 2 4 9 9 9 6 5 6 4 3 4 6 5 3 2 2 2 2 3 2 2 2 5 5 5 4 5 7 2 4 5 5 5 7 5 4 5 3 4 8 8 6 5 6 8 6 6 11 12 12 12 12
25 26 26 26 26 25 25 25 24 24 23 22 22 21 21 20 19 18 17 17 16 16 15 15 14 10 6 5 4 4 3 4 9 5 5 3 1 5 9 9 9 8 8 7 4 3 4 6 3 2 3 2 2 3 4 3 1 4 5 5 4 6 9 9 6 6 7 8 7 5 4 6 9 6 3 8 10 4 4 2 3 5 9 12 11 11 11 11
26 27 27 27 27 27 26 26 26 26 25 24 23 22 22 21 20 19 18 17 16 15 14 13 12 8 6 3 1 4 1 7 7 3 5 3 3 6 9 9 9 9 10 7 4 5 5 3 3 3 2 2 2 2 4 3 1 5 5 6 3 5 9 9 7 7 7 8 4 5 5 8 9 5 3 9 9 3 3 3 5 6 8 10 10 10 10 9
27 27 27 28 28 28 27 27 27 27 27 26 25 24 23 22 21 20 18 17 15 13 13 12 9 6 5 1 4 3 4 4 4 6 5 5 6 8 9 9 10 10 9 6 5 7 4 3 4 3 0 3 1 3 2 2 3 6 6 5 4 6 8 6 5 7 8 5 5 7 8 4 3 2 2 7 6 2 2 5 5 5 5 7 7 8 8 7
28 28 29 29 29 29 29 28 28 27 28 27 27 26 24 22 21 20 18 17 15 13 12 9 6 4 3 1 5 1 4 3 5 6 6 6 9 9 9 9 11 12 8 6 8 9 7 5 3 3 1 2 2 3 1 2 3 5 4 6 6 8 8 5 5 5 5 4 7 10 8 1 2 0 4 4 4 5 5 5 3 3 4 5 6 6 7 7
28 29 29 30 30 30 30 30 29 28 28 28 28 26 24 23 21 20 18 17 15 13 12 8 5 4 3 2 4 3 4 3 3 4 5 8 10 10 11 11 12 13 9 6 10 13 10 6 3 3 1 1 2 3 4 4 2 3 4 7 8 7 7 5 5 4 3 3 7 8 3 1 4 1 6 4 4 5 6 5 3 4 4 4 6 6 6 7
28 29 30 31 31 31 31 31 30 30 29 28 28 26 24 22 21 19 17 16 15 12 10 7 4 6 2 3 4 8 5 4 3 5 6 7 10 11 11 12 12 13 11 7 8 13 11 7 5 3 2 1 2 3 3 3 1 5 2 4 9 7 7 5 3 3 4 2 5 8 1 3 3 7 5 6 6 5 6 5 4 5 5 5 6 6 6 6
28 30 30 31 32 32 32 32 32 31 30 29 28 25 23 22 19 17 15 15 13 9 7 4 4 7 2 1 7 8 6 7 9 9 8 8 10 10 10 12 13 13 12 10 10 8 7 8 8 5 4 2 3 4 1 2 2 4 1 1 6 7 6 5 2 1 3 2 6 8 1 6 10 11 5 6 8 8 6 6 6 6 5 5 6 5 6 7
28 30 31 32 32 32 33 33 33 31 29 28 26 24 22 19 16 14 13 11 8 4 3 3 5 5 3 4 8 7 8 9 11 13 9 10 12 10 10 11 12 14 14 15 15 8 3 7 6 2 3 3 3 5 4 5 3 3 2 1 3 3 4 7 2 4 3 3 5 5 4 8 12 10 7 7 8 10 9 7 7 6 5 5 5 6 6 6
29 30 31 32 33 33 33 34 33 30 28 27 25 23 19 15 13 10 10 10 7 3 3 5 7 4 2 7 9 6 7 8 12 15 12 12 12 10 10 10 10 11 13 15 15 10 4 4 4 1 3 3 1 3 4 4 3 2 1 3 3 1 4 10 3 6 4 2 2 3 4 8 12 7 8 9 9 10 10 8 8 7 7 6 5 6 5 5
28 29 31 32 33 34 33 34 33 29 26 25 24 21 15 11 8 7 12 13 10 4 5 4 6 4 1 5 4 2 5 6 9 13 14 15 14 14 11 7 6 6 8 11 12 11 6 3 2 1 2 2 2 2 3 4 4 3 1 3 3 2 4 8 4 3 4 2 1 4 3 5 7 5 5 11 11 11 9 8 8 8 7 7 6 5 5 4
28 29 30 32 33 34 33 34 32 26 23 23 22 18 11 9 5 7 10 15 11 2 4 3 4 3 1 3 2 4 5 6 7 7 12 17 18 18 12 4 3 3 3 6 6 5 4 2 1 1 2 2 2 3 3 4 4 4 3 1 3 1 3 5 6 3 3 5 4 7 6 9 8 4 2 9 10 11 10 9 10 9 7 6 5 5 5 5
28 29 30 31 33 34 33 34 30 24 21 21 20 15 8 5 2 4 6 15 11 1 2 2 2 2 2 2 2 4 4 3 4 4 9 15 18 18 11 3 3 6 6 5 2 0 1 0 1 1 3 3 1 4 1 4 3 3 3 2 3 3 3 5 6 2 3 2 5 7 8 16 15 5 3 7 7 9 10 9 8 8 8 6 5 6 5 5
27 28 29 30 33 33 33 34 28 22 20 18 15 11 5 4 2 2 6 14 7 1 1 2 2 1 4 4 5 8 7 6 6 5 7 10 13 13 7 1 3 5 4 3 4 2 0 2 2 1 3 1 3 5 6 7 5 4 3 2 3 5 5 7 8 4 4 2 5 8 10 16 18 9 5 6 6 7 7 6 6 7 7 6 5 6 5 6
26 28 29 30 32 32 33 34 25 20 20 17 11 6 5 6 4 2 8 9 3 5 5 7 5 4 8 8 7 10 10 8 7 6 7 8 9 8 3 1 3 3 0 2 5 3 1 2 4 6 7 6 7 7 6 3 3 2 0 2 4 4 7 9 8 6 4 4 6 9 11 16 17 10 5 5 5 7 8 7 7 8 7 7 7 7 7 8
26 28 29 29 31 31 33 31 21 18 18 16 15 8 4 3 2 3 7 7 9 10 10 13 12 11 15 12 5 2 3 3 6 4 6 9 11 8 1 1 3 2 3 3 3 4 1 4 8 8 8 7 6 6 5 2 1 2 1 3 5 4 8 11 9 8 2 4 5 4 7 15 16 7 3 6 7 11 12 11 11 11 10 7 7 9 9 7
24 27 28 29 31 29 32 27 17 18 15 16 20 11 5 2 1 4 3 5 9 11 13 15 13 13 18 18 14 5 0 3 6 5 6 8 8 6 3 4 5 4 1 3 1 4 3 7 12 9 6 6 5 5 5 3 2 2 1 1 4 3 5 10 9 7 1 5 4 3 6 13 13 5 4 8 10 11 12 14 13 12 11 9 9 10 10 8
23 27 27 28 30 29 31 23 13 19 16 13 15 10 3 8 5 3 3 4 8 6 9 9 7 8 10 13 14 9 6 6 6 7 10 11 4 5 5 5 7 4 2 3 4 4 4 8 9 5 6 6 3 4 5 1 1 3 3 1 5 4 1 5 5 3 0 3 2 3 3 8 8 3 5 10 10 7 7 11 10 8 10 11 10 9 9 10
23 26 26 28 29 29 30 18 11 24 20 6 8 8 12 16 10 1 4 3 6 4 6 6 3 5 6 5 7 11 5 5 5 6 12 15 5 3 6 6 6 4 4 7 8 7 9 8 3 1 5 7 3 2 4 2 4 4 6 5 6 7 5 7 6 5 4 3 1 4 2 6 5 5 8 6 5 7 6 8 10 8 8 7 7 8 9 10
23 25 26 28 27 30 27 10 11 28 21 2 4 14 21 21 16 3 4 2 5 5 4 4 1 3 4 1 7 9 2 3 6 5 11 16 9 5 3 3 4 5 8 7 6 7 11 8 4 3 3 5 4 5 3 5 3 4 5 10 11 10 8 8 6 5 5 5 2 4 0 6 5 5 9 4 3 9 6 7 12 11 8 7 8 10 9 9
24 24 25 27 27 31 22 4 13 28 15 2 9 21 22 22 19 4 4 4 4 5 2 1 1 1 1 2 5 4 3 3 7 6 8 13 11 6 2 2 1 5 7 4 3 4 6 4 5 6 6 4 4 5 4 8 4 3 5 9 9 7 7 8 5 1 1 4 3 2 4 5 6 4 8 3 5 9 5 7 13 10 9 10 10 10 10 9
24 24 26 26 26 29 16 3 19 22 5 5 19 24 22 23 18 3 2 6 3 4 0 1 0 1 1 2 4 3 1 5 3 3 4 9 7 3 2 4 1 3 3 3 2 4 3 2 3 5 4 5 5 4 6 8 6 4 7 3 2 5 7 8 5 4 4 4 4 3 3 3 5 5 6 1 4 8 6 10 12 10 11 12 12 11 11 11
23 24 25 24 25 26 14 10 21 14 2 12 24 23 23 23 13 1 4 4 4 2 1 2 1 3 2 1 3 2 3 4 3 2 2 7 6 3 1 7 5 5 3 5 4 5 3 3 5 6 4 5 5 6 7 8 5 7 8 3 3 4 5 4 5 5 3 2 5 5 1 2 5 6 5 3 2 7 8 12 13 13 14 13 13 13 12 11
23 24 23 24 26 22 16 18 18 8 8 19 24 24 23 19 7 3 4 0 4 2 1 1 2 2 6 5 2 2 3 2 1 3 2 4 5 2 2 6 6 4 3 5 6 7 3 4 6 7 4 5 7 7 7 9 5 6 3 1 2 2 2 1 3 4 1 1 5 5 3 3 5 5 3 2 1 7 9 11 11 12 13 13 13 14 12 9
22 23 23 25 25 22 22 22 12 8 16 22 24 24 18 9 4 5 2 2 3 2 1 2 3 3 7 7 5 5 2 2 2 1 2 2 1 2 1 2 5 3 3 2 6 9 5 1 2 4 4 6 6 6 6 9 7 3 2 2 4 5 4 3 2 3 1 3 6 7 7 5 5 5 3 3 4 7 8 8 9 9 10 12 12 13 12 9
22 22 23 24 24 22 20 14 10 16 22 23 23 19 8 3 5 5 3 4 3 3 2 4 2 3 6 5 4 5 4 4 4 2 1 1 2 3 1 2 2 2 3 4 5 7 6 3 1 3 4 4 2 4 3 2 2 1 2 1 4 6 4 4 4 2 2 6 6 6 5 5 4 6 5 6 6 6 7 8 9 10 11 12 12 12 11 10
23 23 23 22 22 21 16 13 17 21 21 19 18 9 4 2 1 3 4 4 3 1 2 2 3 4 5 3 2 3 3 4 3 2 2 1 2 3 3 4 3 1 4 5 4 5 5 5 3 4 3 4 4 3 4 3 2 4 3 2 1 4 3 3 4 1 3 6 5 3 2 2 6 7 6 8 10 9 9 9 10 10 10 11 11 12 10 9
24 25 23 21 22 23 18 16 17 15 13 12 8 5 6 2 3 5 4 3 2 1 2 1 4 4 4 4 3 3 2 2 3 4 1 1 1 2 4 4 5 2 4 4 2 4 4 6 2 1 4 5 8 4 4 3 3 6 4 4 4 2 1 4 4 2 4 6 4 3 2 2 4 6 7 10 12 10 8 9 10 9 9 9 9 10 8 8
25 24 24 21 19 17 13 11 11 7 7 5 4 5 5 3 4 3 3 4 4 3 3 2 6 5 2 2 4 3 3 3 4 5 3 3 3 3 5 4 3 3 2 1 1 2 4 7 3 4 3 3 9 9 9 5 3 5 4 5 5 4 4 5 4 4 5 5 3 1 2 3 3 5 7 9 9 7 6 8 8 8 9 7 7 7 8 9
26 24 23 18 13 12 9 9 8 3 3 2 6 4 3 4 4 1 2 4 3 4 4 3 4 3 3 3 3 4 4 3 5 5 3 4 2 2 2 4 4 1 1 1 2 2 3 7 6 3 1 5 6 6 6 3 1 3 3 4 2 5 5 4 3 5 3 2 3 2 3 4 4 6 6 4 7 7 6 6 5 7 8 6 6 7 9 9
27 24 18 12 12 15 11 8 5 5 6 5 5 2 4 4 3 3 2 2 1 3 6 5 4 2 3 4 3 4 5 3 5 5 3 3 3 2 1 3 4 5 4 1 3 1 2 6 5 5 3 5 5 2 2 3 1 1 2 2 4 4 6 2 3 1 2 2 5 2 3 5 3 6 6 5 8 8 7 6 3 5 5 5 7 8 8 9
28 24 14 10 16 17 9 3 3 7 5 6 4 4 4 3 3 2 1 2 1 1 3 3 2 1 2 3 3 5 6 4 4 5 3 3 3 4 4 4 4 6 4 2 3 2 3 6 5 5 9 8 3 3 2 4 5 3 2 5 3 2 3 1 2 3 2 4 5 1 4 4 2 4 6 6 8 10 9 8 5 4 3 6 7 7 9 9
25 19 9 8 17 16 5 3 6 5 4 4 3 4 2 2 2 1 1 2 1 2 4 1 2 1 1 1 2 5 6 4 4 5 3 2 2 3 4 4 4 7 7 4 2 2 1 5 5 4 6 7 3 2 3 4 2 3 3 4 3 1 2 1 1 2 2 4 5 3 4 4 4 5 4 4 8 10 10 8 6 6 6 7 8 8 8 7
17 9 3 6 17 13 5 6 3 3 4 3 4 3 2 3 2 1 1 2 1 2 2 2 2 1 1 0 1 3 3 1 2 3 1 1 1 3 7 4 4 9 11 5 1 2 1 2 5 4 3 4 5 2 2 5 4 3 1 1 1 3 4 2 2 3 3 4 3 4 5 3 5 6 6 9 11 10 10 8 7 10 10 8 8 8 7 7
8 3 2 6 15 8 5 4 3 4 3 3 4 2 2 2 3 3 2 1 1 1 0 2 1 1 2 1 2 2 2 1 1 1 1 1 2 3 8 7 5 9 10 5 4 3 2 1 4 6 6 4 3 1 2 0 3 3 2 3 4 2 1 1 1 3 3 3 3 4 5 5 6 5 8 11 11 11 11 10 10 11 10 9 8 7 7 8
4 1 2 7 13 5 1 4 3 3 2 2 2 2 2 1 1 3 2 0 0 1 1 2 2 2 2 1 2 2 1 1 1 2 2 1 2 1 6 6 5 7 6 5 5 3 2 2 3 5 5 3 5 5 1 2 4 2 0 2 4 3 3 3 4 1 1 2 4 3 5 6 5 4 8 10 10 10 10 10 11 10 10 9 7 7 7 7
1 1 5 8 12 5 1 2 1 1 2 2 2 2 1 1 1 3 4 2 1 1 1 0 2 2 2 2 1 1 2 1 2 0 0 1 3 1 4 7 7 5 2 2 4 3 1 0 2 5 4 4 9 9 4 5 4 3 4 4 4 4 4 2 4 4 3 2 2 1 4 7 5 2 4 7 6 6 6 7 10 9 8 8 7 7 7 7
1 4 9 10 10 5 3 1 3 1 1 2 2 1 1 1 1 2 3 3 2 1 2 1 1 0 0 1 1 1 1 0 2 1 1 1 2 2 4 8 7 4 3 2 4 4 1 1 2 5 5 4 8 7 3 3 3 6 4 5 5 4 4 1 4 3 3 3 1 1 4 6 5 5 5 6 7 8 7 7 9 9 6 6 7 7 7 7
1 4 6 7 8 4 3 2 2 1 3 3 2 2 3 1 1 1 2 2 1 0 1 1 1 0 0 1 2 1 1 0 1 0 1 1 3 1 5 9 6 3 2 2 3 3 2 1 2 4 6 6 6 5 5 5 5 3 1 3 5 5 6 3 2 1 1 3 1 1 4 6 6 7 8 9 11 10 9 7 7 8 7 6 6 5 5 5
3 2 3 6 7 4 3 3 3 2 2 2 2 3 2 1 2 3 3 2 2 1 1 2 1 1 1 1 3 1 1 1 1 1 1 0 3 0 5 8 6 1 1 5 6 2 1 1 1 1 3 4 4 3 3 4 4 1 2 2 4 6 7 4 2 3 2 4 4 2 5 6 9 11 12 13 15 13 11 10 8 8 7 7 6 6 5 5
2 1 3 5 6 5 2 1 3 2 1 2 1 2 1 1 4 1 2 2 2 1 1 2 1 1 1 3 3 1 2 0 0 1 1 2 2 2 3 6 5 3 3 10 10 3 2 0 2 4 4 5 6 6 4 1 3 5 7 5 1 3 2 3 1 2 3 4 6 5 5 7 13 15 13 14 15 13 10 9 9 8 9 8 7 6 6 6
1 1 1 2 4 3 3 3 4 2 1 1 1 2 1 1 3 2 0 1 1 0 0 1 2 2 1 2 2 1 2 2 2 1 1 2 2 3 5 4 3 3 5 7 7 3 2 2 4 6 7 7 6 6 4 2 3 6 10 10 3 4 4 3 2 4 1 4 7 6 5 9 14 15 12 12 14 11 8 8 8 7 8 9 9 6 4 6
1 1 1 1 1 1 2 3 4 4 3 1 1 1 1 1 1 1 1 2 2 1 0 2 4 5 3 1 2 1 2 3 3 2 2 2 2 3 6 3 2 2 4 3 4 3 1 4 5 4 5 6 4 5 5 4 5 6 8 12 10 5 4 4 6 6 4 4 8 9 11 12 14 15 11 10 11 9 8 8 7 6 6 6 8 8 6 6
0 1 2 2 0 1 1 3 3 3 3 2 1 1 1 1 2 3 2 3 4 3 1 1 3 6 6 3 3 2 1 1 2 4 2 1 2 1 2 4 3 2 4 3 3 1 1 3 4 3 4 5 6 7 7 6 7 8 9 11 12 10 7 7 8 7 8 9 11 11 14 15 14 12 11 9 8 6 6 7 7 7 7 6 5 7 9 7
0 1 2 2 2 2 2 2 1 1 2 2 2 2 2 4 4 3 1 2 0 4 2 2 3 6 5 3 2 3 4 3 4 6 4 1 2 1 1 2 2 2 4 3 3 2 1 2 2 1 3 6 7 8 9 9 9 11 11 11 10 11 9 8 9 8 8 9 12 12 12 14 11 7 8 9 8 7 7 8 8 8 7 5 2 4 8 8
2 3 2 2 3 3 2 1 2 2 1 1 2 2 1 2 2 1 2 2 4 2 3 2 4 4 3 2 2 4 6 4 6 9 6 4 4 3 2 2 3 2 3 0 2 2 0 1 2 1 3 6 7 8 10 9 7 9 11 12 12 11 9 8 8 7 7 8 10 9 9 12 9 6 9 11 10 10 11 9 7 7 8 5 2 3 6 7
5 4 2 1 3 3 2 2 1 1 1 2 3 3 1 0 2 2 1 2 2 5 5 4 3 1 2 3 4 6 7 6 8 9 7 5 5 5 5 5 5 5 2 2 2 2 3 2 2 1 2 6 7 6 5 4 5 5 8 12 14 12 10 11 11 11 11 10 8 7 8 10 9 8 10 12 11 11 13 11 8 7 7 6 4 3 5 6
Wind_Direction
14 12 9 6 4 2 360 358 358 356 356 354 355 354 352 351 347 343 338 335 333 332 336 337 338 337 338 337 334 332 331 328 320 304 268 265 266 240 240 247 249 284 313 333 346 126 81 59 14 17 63 87 29 71 106 81 104 67 83 109 257 215 206 196 194 198 186 256 240 221 195 159 182 211 187 28 33 31 8 331 276 313 101 94 78 134 149 157
14 12 9 6 2 359 356 354 353 351 351 350 350 348 348 348 345 343 338 336 333 329 332 334 334 333 334 336 334 333 329 323 314 287 269 269 252 226 223 228 235 262 308 334 162 126 94 50 336 24 48 34 333 329 132 154 121 100 116 157 243 207 214 198 189 208 209 240 218 207 210 188 190 181 152 190 283 9 325 251 300 304 138 121 144 150 156 165
14 12 9 6 3 359 356 352 350 348 347 346 345 344 344 344 343 341 338 337 335 333 332 333 334 330 330 334 335 335 328 325 319 283 297 351 234 217 208 209 215 239 310 18 133 109 107 124 71 49 41 10 317 319 107 150 165 161 139 210 251 212 239 236 197 216 228 219 177 196 213 220 208 151 154 188 192 354 242 231 217 249 213 153 161 161 163 171
14 11 8 6 3 0 356 352 350 346 345 343 342 341 340 340 341 338 336 336 335 336 334 334 334 329 328 332 339 336 333 345 317 251 20 13 20 186 196 202 204 227 277 133 122 100 100 97 73 60 61 306 317 335 213 213 189 173 146 200 237 183 242 255 218 225 235 205 189 173 154 235 220 140 171 155 138 270 249 230 208 224 208 160 163 168 169 173
13 11 9 5 2 359 356 352 349 346 343 341 339 338 337 337 337 336 334 332 333 335 335 334 332 329 327 331 341 335 347 38 263 275 345 337 360 153 178 187 195 212 204 161 153 116 84 73 70 57 49 305 315 353 237 228 146 160 212 221 228 159 232 261 227 225 223 174 175 153 165 208 158 143 183 158 175 231 230 232 216 217 196 158 163 169 174 179
10 9 8 5 2 359 355 352 348 346 342 339 337 334 334 334 333 333 330 328 329 331 333 332 330 328 322 329 345 342 33 76 279 294 319 320 11 142 155 169 181 180 173 171 163 113 66 52 49 49 50 355 285 273 265 253 126 242 266 255 242 185 232 268 239 210 182 154 183 180 192 158 141 213 189 177 213 227 239 249 217 205 150 143 156 169 181 187
7 6 5 3 1 358 355 352 348 346 342 339 337 333 332 330 330 328 326 325 322 325 329 329 328 325 319 326 348 21 95 255 281 295 295 292 139 147 150 165 168 166 176 170 136 93 71 60 38 145 110 336 250 230 274 298 178 220 272 297 264 201 224 249 238 217 176 185 211 172 158 159 181 214 153 199 229 255 300 292 158 142 128 136 154 176 191 193
4 4 3 1 359 357 355 352 348 345 342 340 337 334 332 329 326 324 323 319 315 319 322 323 325 318 313 325 40 17 321 258 281 305 284 249 180 157 157 166 165 173 179 176 149 123 103 100 212 176 101 288 200 241 284 326 305 199 237 278 258 211 232 245 236 226 200 204 204 141 182 192 186 174 150 218 232 277 334 71 104 118 128 141 160 182 196 200
2 1 1 359 358 356 354 351 347 344 341 340 337 335 332 329 325 321 319 314 309 310 313 317 316 303 296 333 85 19 275 252 302 309 288 230 188 166 169 173 172 182 177 182 169 137 148 200 206 180 206 270 252 295 288 12 294 202 209 251 255 262 268 271 250 227 216 204 155 174 216 214 155 156 231 230 207 167 82 82 92 121 147 154 166 188 200 209
0 0 359 357 357 355 353 351 347 343 340 338 337 336 333 329 324 320 317 310 303 299 303 307 300 289 271 241 86 54 261 282 316 299 279 223 191 176 181 184 185 191 178 170 170 158 177 196 168 139 177 282 275 272 196 143 238 212 233 266 258 271 286 289 278 249 207 196 180 190 220 250 48 242 247 239 168 131 103 91 97 139 189 179 176 194 203 216
358 359 358 356 355 354 353 351 347 343 339 338 339 338 334 331 326 321 317 308 299 293 291 289 276 249 222 124 120 197 247 289 319 314 278 225 202 200 197 196 196 198 188 166 192 204 203 188 130 96 125 278 279 281 255 211 243 287 298 304 291 298 304 278 278 270 170 192 198 175 207 336 45 253 225 197 152 139 129 133 160 192 229 208 192 199 207 221
357 357 356 355 353 353 353 350 347 344 340 341 341 339 337 332 326 321 317 309 300 289 277 273 249 217 191 69 201 229 241 244 283 323 293 231 213 218 212 211 212 215 209 190 224 229 214 191 137 133 223 263 315 304 263 213 313 307 320 307 300 341 337 290 275 236 167 187 179 137 359 298 221 231 207 156 148 131 137 161 191 209 229 222 209 207 211 223
355 355 354 353 352 352 352 351 348 343 342 345 344 341 336 330 327 323 321 315 304 287 261 247 218 203 164 3 238 249 264 251 262 280 278 244 224 219 215 218 225 234 231 225 253 252 208 194 163 174 214 172 274 277 309 40 8 304 24 107 299 354 342 297 351 141 146 192 167 138 235 261 233 226 177 150 151 130 153 191 202 212 222 221 214 214 219 223
353 353 353 351 350 351 351 352 348 344 344 345 344 341 333 329 330 328 333 332 323 292 239 192 185 178 137 256 258 279 279 261 252 250 247 240 233 227 224 224 230 239 240 243 257 271 223 202 178 185 234 178 242 291 337 1 10 311 333 60 341 358 293 293 340 116 128 232 193 151 210 252 252 230 166 166 163 152 180 202 207 216 219 222 215 213 224 223
352 351 351 350 349 350 352 351 348 346 346 344 345 341 332 331 336 350 21 26 27 68 128 145 169 148 51 279 278 286 263 246 238 233 229 236 236 239 239 228 234 242 244 250 255 267 264 190 165 181 260 234 36 349 330 337 4 13 323 293 332 14 281 303 306 157 167 258 210 164 217 261 267 239 168 168 170 170 186 197 206 219 219 224 226 212 219 229
349 349 349 349 348 350 351 350 349 349 348 346 345 341 332 332 350 44 57 42 35 73 105 120 166 149 24 282 293 304 244 231 237 233 225 231 231 236 249 248 249 250 249 258 259 262 250 178 166 175 244 301 65 81 360 354 339 352 56 249 289 358 320 318 318 197 174 123 190 221 250 272 275 279 186 172 172 177 186 198 207 218 221 222 232 223 209 216
347 347 347 347 347 348 350 349 350 351 352 349 344 341 334 334 14 84 57 29 20 69 109 100 149 143 276 260 274 292 272 240 236 233 219 223 226 231 245 272 305 328 308 281 264 246 223 183 271 330 43 8 94 95 21 339 305 319 19 351 266 284 312 311 313 306 131 128 198 226 251 255 264 316 205 185 176 176 185 200 208 214 220 221 229 237 220 209
345 344 345 346 345 348 350 349 349 353 357 354 345 338 336 339 21 118 34 8 3 64 108 63 112 92 278 232 240 286 320 298 258 247 220 219 224 227 232 250 7 16 9 337 308 202 243 8 65 347 357 359 46 91 140 243 225 259 306 329 300 277 252 267 282 297 115 168 217 206 243 254 261 289 188 200 185 184 197 199 210 218 217 220 221 233 232 219
344 344 344 344 345 347 349 349 350 355 359 1 346 332 356 7 330 173 357 357 2 146 271 259 156 135 257 242 260 279 301 315 306 272 224 214 215 213 215 240 25 25 20 345 324 343 49 4 40 248 279 278 201 172 195 216 193 208 235 211 264 286 272 260 262 249 153 210 234 202 226 248 254 255 208 201 189 200 220 205 213 227 223 223 221 231 228 225
343 343 342 343 344 345 349 349 351 357 3 13 7 355 30 14 351 331 335 339 265 221 259 248 221 241 265 267 268 279 285 275 267 248 218 207 181 164 164 30 36 23 182 223 281 315 101 257 265 236 234 220 211 210 216 224 180 200 290 237 251 263 277 277 269 264 157 170 248 213 220 246 252 252 213 183 184 209 224 216 217 223 224 218 217 229 222 224
343 342 341 342 342 345 349 349 353 360 7 36 48 54 69 34 17 326 322 305 252 234 240 242 231 235 251 256 245 273 323 270 254 244 210 194 155 139 184 114 99 283 242 187 256 304 5 248 245 233 226 219 212 207 217 246 243 259 266 288 289 237 263 279 274 281 189 166 270 213 212 255 256 255 206 172 188 213 211 208 213 214 218 215 214 227 226 222
343 343 340 341 342 344 348 349 357 359 8 53 60 80 113 46 303 259 279 299 272 234 234 246 239 244 253 257 254 240 347 268 271 261 191 164 149 170 206 128 156 219 210 97 286 294 292 260 255 242 205 201 208 182 188 213 219 243 206 323 298 246 272 282 274 295 206 170 265 204 195 253 256 236 207 197 203 219 211 207 213 208 208 209 208 220 227 223
343 342 341 341 340 342 347 348 359 4 11 51 62 82 57 357 349 234 203 290 288 241 238 244 229 243 256 266 250 208 198 222 243 254 193 162 160 182 156 149 186 200 119 154 190 217 247 255 256 231 166 183 225 163 155 196 268 214 185 190 273 253 282 276 279 347 71 195 233 183 202 266 273 262 235 221 218 238 229 219 225 211 207 213 209 214 222 221
342 344 343 341 340 342 345 345 1 5 3 40 72 38 355 350 1 92 179 275 294 266 246 233 210 222 239 278 207 171 189 208 203 246 191 166 150 149 159 168 174 188 221 202 188 208 240 240 226 102 145 167 225 234 166 221 288 236 196 199 245 252 216 225 271 351 341 301 137 119 7 305 280 259 254 244 231 249 242 223 235 228 212 210 207 214 219 219
340 343 342 342 341 341 344 347 5 358 351 16 58 353 344 347 350 332 173 352 297 279 276 242 247 217 215 143 158 163 161 221 220 229 179 167 155 136 174 166 149 205 224 203 181 227 251 235 188 249 231 171 208 263 207 180 251 289 222 206 224 252 247 236 275 357 6 321 256 144 113 289 293 262 256 276 235 235 223 214 232 230 213 200 205 215 214 213
339 341 342 343 341 343 349 7 348 348 342 346 350 338 336 340 343 321 157 32 306 277 332 228 219 243 246 133 161 161 99 270 244 201 174 177 164 129 148 164 135 216 205 181 178 232 260 236 183 222 239 201 211 254 214 166 159 292 239 203 207 234 253 254 254 123 188 269 275 115 163 255 314 290 259 270 233 239 232 229 238 232 219 214 213 214 208 205
337 340 341 341 343 347 354 317 332 343 345 333 338 334 332 335 339 298 145 25 307 261 37 250 213 113 281 186 161 127 121 296 292 149 169 182 171 79 150 191 195 222 176 127 264 244 217 214 200 207 211 203 212 247 220 164 140 243 248 224 234 240 247 254 225 191 232 259 313 14 130 229 290 270 276 311 230 263 266 243 244 233 225 223 221 219 209 203
334 339 340 338 340 343 342 320 327 333 308 328 333 331 330 333 333 206 88 39 278 278 119 262 122 107 344 335 121 94 272 304 15 351 318 173 178 49 192 213 188 201 184 138 235 258 173 184 208 193 198 212 215 230 203 152 144 244 254 296 312 255 246 250 214 214 268 319 299 313 113 224 266 267 316 22 219 272 265 243 241 231 226 223 222 224 216 205
332 338 339 333 334 336 330 322 318 306 318 331 331 329 328 329 335 91 75 148 275 347 113 309 41 28 342 7 36 342 313 1 65 288 353 159 199 89 175 211 164 191 239 171 231 265 231 209 196 165 178 215 224 229 185 155 194 242 246 338 19 41 40 48 178 185 19 325 251 252 186 221 273 273 314 35 226 258 255 249 243 232 229 225 222 224 218 205
330 335 335 331 332 329 323 320 318 322 331 329 324 325 328 333 42 77 70 234 276 315 259 23 34 302 347 19 344 333 6 320 294 338 55 131 276 22 162 187 115 146 266 267 261 265 274 294 164 157 194 201 213 231 187 180 215 255 359 324 347 12 26 34 82 116 103 269 246 228 198 193 272 275 225 195 214 221 228 250 255 239 231 229 226 224 216 203
328 330 329 328 327 323 318 317 326 328 323 321 322 327 341 20 68 99 202 242 274 298 353 22 10 330 13 30 314 328 6 311 313 44 109 151 46 32 333 325 47 66 341 314 278 274 295 318 242 251 236 181 184 259 240 188 198 104 54 15 342 331 357 14 357 57 187 257 265 246 200 167 235 268 234 233 251 229 213 232 245 237 226 223 222 219 213 202
327 326 323 322 320 314 305 301 314 318 315 317 325 343 73 77 40 173 235 294 309 324 22 341 333 344 353 13 257 287 330 307 319 51 172 173 130 166 203 218 196 6 307 265 277 314 294 258 257 291 262 171 163 260 309 358 98 138 126 98 358 303 333 332 296 275 219 249 250 218 181 171 236 255 243 245 261 246 221 226 237 239 232 224 218 215 208 194
325 324 321 319 315 310 306 308 317 317 313 321 336 41 82 106 225 216 241 291 267 310 36 329 324 324 329 356 312 289 318 295 335 3 339 64 116 242 258 216 176 207 262 232 296 336 296 288 289 280 275 197 168 192 269 280 188 171 169 168 181 199 268 267 266 270 265 267 250 195 215 277 271 271 237 228 247 242 224 236 243 246 246 237 225 215 202 188
326 326 321 316 313 313 313 319 328 317 304 340 54 70 83 163 233 231 232 254 260 331 38 18 331 325 354 354 299 346 19 306 349 13 354 28 37 321 309 287 219 215 237 209 278 215 262 296 244 191 270 198 179 202 220 215 184 190 166 148 168 161 192 236 230 228 255 282 284 228 207 197 200 262 239 224 257 261 234 244 248 254 257 249 237 212 191 188
327 326 323 319 322 329 319 311 321 285 218 71 67 81 140 202 252 214 215 263 291 343 343 348 2 350 343 312 291 35 46 306 353 21 14 31 22 285 301 309 308 12 92 258 259 193 241 268 247 241 23 151 190 229 207 156 13 244 139 104 208 183 182 228 204 191 205 281 277 216 218 215 201 265 276 270 292 284 255 255 252 261 262 234 220 208 191 192
330 331 331 335 345 339 319 300 291 200 169 91 76 147 193 221 230 172 208 281 321 347 334 347 41 62 330 318 316 15 23 343 5 14 352 16 12 331 311 307 339 35 66 217 243 243 269 268 278 318 329 183 205 242 167 161 194 254 120 176 236 166 151 222 283 18 88 251 266 193 235 285 311 289 303 327 302 292 290 287 274 274 263 210 208 207 196 194
334 337 332 339 354 348 327 288 195 175 136 90 128 201 223 222 193 179 292 319 298 33 50 12 358 39 326 329 326 345 360 355 9 14 335 325 360 7 352 318 341 23 25 293 252 233 266 277 271 270 275 268 225 158 206 207 162 136 220 216 215 88 104 139 278 334 41 251 273 203 216 260 279 273 315 335 293 280 281 281 291 294 243 211 217 211 206 200
330 330 314 334 356 354 357 112 149 150 91 92 185 228 214 207 197 158 355 343 322 44 74 149 259 315 24 338 307 333 360 356 346 359 331 299 345 50 30 324 320 358 346 316 258 233 302 295 276 250 268 299 347 121 268 285 185 177 222 189 136 188 273 70 181 237 248 256 284 297 257 242 202 228 284 275 250 254 261 269 283 267 228 218 224 214 211 203
329 328 295 353 357 1 62 97 114 84 71 135 214 243 210 235 262 224 298 342 50 79 70 213 235 347 2 166 263 310 347 330 318 343 313 303 339 57 41 345 305 338 335 343 32 291 343 290 282 314 331 320 349 15 270 306 329 352 351 16 83 189 196 191 180 171 194 243 276 299 294 265 223 211 206 222 229 234 246 254 256 246 230 221 219 208 204 197
338 336 241 354 3 19 91 53 31 69 88 177 205 230 229 270 287 265 259 322 25 95 199 210 204 337 289 279 305 297 313 274 232 208 217 333 346 16 20 1 323 329 330 2 34 326 348 358 267 310 336 329 334 327 188 249 345 355 343 321 317 287 208 256 243 131 155 209 233 272 277 259 246 210 190 214 227 221 223 227 231 237 235 229 216 203 201 198
346 356 260 358 10 19 74 9 32 109 126 189 190 229 266 305 310 302 291 203 315 255 201 186 209 245 230 251 305 278 341 342 259 199 219 25 60 9 359 356 325 323 338 8 16 353 357 344 272 304 332 322 278 267 251 269 262 224 119 351 334 328 344 304 280 320 66 202 193 229 274 266 253 213 198 211 220 220 221 222 229 235 235 234 222 202 200 200
2 309 291 342 1 358 67 44 352 100 120 181 213 222 264 43 49 323 324 8 14 294 16 141 224 229 201 206 245 214 63 327 276 322 217 123 110 165 321 342 328 324 25 20 312 281 236 356 300 285 266 254 270 277 297 286 261 116 81 28 13 25 36 351 282 304 321 297 196 187 290 273 268 302 261 253 262 268 259 235 234 241 237 235 230 210 203 206
140 288 296 326 350 5 78 69 307 340 159 249 267 257 315 25 62 332 326 344 348 337 14 359 229 185 190 205 145 104 78 213 221 129 133 173 150 181 335 350 345 346 47 23 305 298 309 36 344 296 274 272 280 287 328 351 56 73 42 21 37 34 24 315 253 265 275 286 301 290 277 269 295 0 341 313 330 328 304 264 243 247 247 242 239 227 218 215
263 273 283 321 342 13 111 174 240 249 269 300 352 333 329 349 197 246 293 302 292 23 35 300 246 84 215 128 99 149 247 130 182 210 131 181 212 173 7 355 353 13 36 354 334 325 316 345 17 341 324 322 327 341 350 358 35 56 295 20 39 18 9 354 293 347 297 268 297 245 248 263 298 342 350 351 1 354 330 311 277 258 248 236 234 235 238 236
317 279 264 315 348 42 131 180 147 164 257 355 13 309 318 326 262 207 184 245 257 178 176 269 266 139 149 52 67 35 304 127 197 296 71 273 262 302 7 346 342 350 336 5 13 359 230 227 83 24 312 298 306 314 302 308 341 335 253 354 33 22 17 19 3 358 297 294 339 299 252 281 308 324 340 352 356 351 344 342 326 292 271 248 226 208 209 223
11 343 296 321 359 45 73 47 81 111 160 73 9 289 198 235 288 257 170 230 254 168 196 278 305 84 66 47 54 337 318 356 355 337 321 296 280 268 328 331 324 300 358 17 16 30 137 311 205 186 210 235 239 240 233 258 311 299 298 309 98 114 62 75 58 296 263 301 315 263 247 306 313 314 331 343 340 336 336 343 343 327 310 291 264 223 188 185
78 300 312 342 344 14 36 28 37 29 338 129 176 287 203 222 298 325 309 247 255 29 332 342 30 42 7 34 51 284 306 346 352 341 248 254 253 285 315 316 305 340 31 20 359 22 88 297 246 209 226 233 220 229 235 224 249 273 294 300 265 163 139 122 195 236 242 314 291 268 292 312 299 300 321 331 325 323 325 332 335 323 314 307 295 274 213 186
88 236 227 15 306 322 25 3 2 354 333 326 166 286 318 327 318 287 302 335 341 3 60 357 16 24 6 27 120 208 340 10 339 301 258 271 297 331 335 314 276 21 52 28 347 39 89 268 247 217 245 249 232 237 236 228 239 245 263 279 280 255 195 194 220 203 171 245 268 283 300 293 286 295 309 311 307 308 309 308 306 306 319 324 309 289 258 221
22 263 303 357 304 236 297 316 331 342 322 301 287 280 216 194 227 242 266 7 352 339 78 98 355 1 350 357 110 158 250 54 299 279 245 265 315 352 335 307 300 14 47 30 355 35 173 257 248 226 271 277 267 267 264 257 258 254 247 254 266 269 243 227 236 210 189 223 251 269 281 277 275 284 289 284 284 288 295 302 310 321 329 337 321 291 274 257
355 358 339 347 303 272 286 305 2 27 331 301 257 253 205 186 212 267 306 112 160 313 24 86 322 326 317 315 112 182 228 209 240 255 214 194 304 253 202 254 263 335 15 20 343 315 193 245 266 253 288 278 267 265 264 258 256 261 262 255 254 267 264 248 246 226 195 222 240 240 257 269 270 272 277 282 289 293 296 306 316 314 309 316 318 283 278 275
329 347 355 332 296 287 277 271 107 102 330 308 206 235 251 209 216 288 307 171 161 151 66 32 299 308 315 286 217 232 258 254 249 250 225 210 241 223 208 213 207 270 333 222 249 302 166 271 312 335 285 267 251 246 254 264 274 271 270 264 252 253 258 255 250 232 206 222 232 220 234 258 258 251 268 280 291 294 289 286 289 293 296 295 276 262 271 270
348 339 355 344 282 281 271 280 82 109 260 232 216 244 245 352 12 33 323 311 113 114 67 12 296 318 1 284 242 247 267 269 260 256 239 232 240 225 228 235 221 229 231 185 222 238 182 207 279 209 243 264 262 258 263 300 317 278 252 250 247 244 249 255 256 250 240 235 232 230 239 249 245 239 255 269 273 276 278 273 265 267 278 281 277 265 260 259